Abilene, TX

11:44 AM CDT on August 21, 2017 (GMT -0500)
Abilene Regional

Weather History for KABI - November, 2010

Change the Weather History Date:

Sunday, November 21, 2010

  Actual Average Record
Temperature  
Mean Temperature 70 °F 52 °F  
Max Temperature 79 °F 64 °F 83 °F (1897)
Min Temperature 61 °F 41 °F 20 °F (1906)
Degree Days  
Heating Degree Days 0 13  
Month to date heating degree days 163 195  
Since 1 July heating degree days 207 299  
Cooling Degree Days 5 0  
Month to date cooling degree days 12 15  
Year to date cooling degree days 2654 2404  
Growing Degree Days 20 (Base 50)    
Moisture  
Dew Point 57 °F    
Average Humidity 66    
Maximum Humidity 90    
Minimum Humidity 42    
Precipitation  
Precipitation 0.00 in 0.04 in 0.83 in (1992)
Month to date precipitation 0.15 1.07  
Year to date precipitation 26.59 23.25  
Sea Level Pressure  
Sea Level Pressure 29.87 in    
Wind  
Wind Speed 15 mph (South)    
Max Wind Speed 28 mph    
Max Gust Speed 36 mph    
Visibility 10 miles    
Events      
T = Trace of Precipitation, MM = Missing Value Source: NWS Daily Summary

Daily Weather History Graph

Daily Weather History Graph

Search for Another Location

Airport or City:

Trip Planner

Search our weather history database for the weather conditions in past years. The results will help you decide how hot, cold, wet, or windy it might be!

Date:

Astronomy

Nov. 21, 2010 Rise Set
Actual Time 7:13 AM CST 5:35 PM CST
Civil Twilight 6:47 AM CST 6:01 PM CST
Nautical Twilight 6:17 AM CST 6:31 PM CST
Astronomical Twilight 5:47 AM CST 7:01 PM CST
Moon 5:31 PM CST 7:12 AM CST
Length of Visible Light 11h 14m
Length of Day
10h 21m
Full, 100% of the Moon is Illuminated
Nov 21
Full
Nov 28
Last Quarter
Dec 5
New
Dec 13
First Quarter
Dec 21
Full

Hourly Weather History & Observations

Time (CST) Temp. Dew Point Humidity Pressure Visibility Wind Dir Wind Speed Gust Speed Precip Events Conditions
12:52 AM 62.1 °F 55.0 °F 78% 29.91 in 10.0 mi South 13.8 mph - N/A   Clear
1:52 AM 62.1 °F 55.9 °F 80% 29.91 in 10.0 mi South 15.0 mph - N/A   Clear
2:14 AM 62.6 °F 57.2 °F 82% 29.96 in 10.0 mi South 17.3 mph 24.2 mph N/A   Mostly Cloudy
2:21 AM 62.6 °F 57.2 °F 82% 29.96 in 10.0 mi South 17.3 mph 26.5 mph N/A   Scattered Clouds
2:52 AM 63.0 °F 57.9 °F 84% 29.89 in 10.0 mi South 13.8 mph - N/A   Clear
3:52 AM 63.0 °F 59.0 °F 87% 29.88 in 10.0 mi South 11.5 mph - N/A   Partly Cloudy
4:52 AM 61.0 °F 57.9 °F 90% 29.87 in 10.0 mi SSE 12.7 mph - N/A   Clear
5:52 AM 63.0 °F 59.0 °F 87% 29.86 in 10.0 mi SSE 16.1 mph - N/A   Clear
6:52 AM 64.0 °F 60.1 °F 87% 29.86 in 10.0 mi South 17.3 mph - N/A   Clear
7:52 AM 64.9 °F 60.1 °F 84% 29.88 in 10.0 mi South 13.8 mph 21.9 mph N/A   Clear
8:52 AM 66.9 °F 60.1 °F 79% 29.89 in 10.0 mi South 24.2 mph 31.1 mph N/A   Clear
9:52 AM 69.1 °F 60.1 °F 73% 29.91 in 10.0 mi South 21.9 mph 28.8 mph N/A   Clear
10:52 AM 71.1 °F 59.0 °F 66% 29.92 in 10.0 mi SSW 17.3 mph 25.3 mph N/A   Clear
11:52 AM 73.0 °F 57.9 °F 59% 29.90 in 10.0 mi SSW 21.9 mph 29.9 mph N/A   Clear
12:52 PM 75.9 °F 57.9 °F 54% 29.87 in 10.0 mi SSW 18.4 mph - N/A   Clear
1:52 PM 78.1 °F 55.9 °F 46% 29.83 in 10.0 mi SSW 19.6 mph - N/A   Clear
2:52 PM 78.1 °F 55.0 °F 45% 29.82 in 10.0 mi SSW 19.6 mph - N/A   Clear
3:52 PM 78.1 °F 53.1 °F 42% 29.81 in 10.0 mi SW 17.3 mph 24.2 mph N/A   Clear
4:52 PM 75.9 °F 52.0 °F 43% 29.81 in 10.0 mi SSW 12.7 mph - N/A   Clear
5:52 PM 72.0 °F 52.0 °F 49% 29.81 in 10.0 mi South 6.9 mph - N/A   Clear
6:52 PM 64.9 °F 51.1 °F 61% 29.82 in 10.0 mi SSE 6.9 mph - N/A   Clear
7:52 PM 64.0 °F 51.1 °F 63% 29.83 in 10.0 mi South 10.4 mph - N/A   Clear
8:52 PM 68.0 °F 57.0 °F 68% 29.84 in 10.0 mi SSE 10.4 mph - N/A   Clear
9:52 PM 69.1 °F 59.0 °F 70% 29.84 in 10.0 mi South 16.1 mph 21.9 mph N/A   Clear
10:52 PM 69.1 °F 59.0 °F 70% 29.84 in 10.0 mi South 15.0 mph - N/A   Clear
11:52 PM 66.9 °F 59.0 °F 76% 29.83 in 10.0 mi South 12.7 mph - N/A   Clear